Hourly Data Report for March 28, 2015

All times are specified in Local Standard Time (LST). Add 1 hour to adjust for Daylight Saving Time where and when it is observed.

MIRAMICHI RCS
NEW BRUNSWICK

47°00'34.000" N
65°27'54.000" W
33.00 m
8100989
71744
ACQ

Download Data

Hourly Data (March 2015)
Hourly Data Report for March 28, 2015
TIME Temp Definition
°C
Dew Point Definition
°C
Rel Hum Definition
%
Wind Dir Definition
10's deg

Wind Spd Definition
km/h
Visibility Definition
km
Stn Press Definition
kPa
Hmdx Definition


Wind Chill Definition


Weather Definition


00:00 -0.7 -9.2 53 30 6   100.48   -3 LegendNANA
01:00 -1.5 -9.8 53 33 7   100.48   -4 LegendNANA
02:00 -2.0 -10.0 54 33 7   100.53   -5 LegendNANA
03:00 -2.7 -9.9 58 34 8   100.52   -6 LegendNANA
04:00 -3.5 -9.9 61 34 6   100.55   -6 LegendNANA
05:00 -4.1 -9.9 64 34 7   100.64   -7 LegendNANA
06:00 -4.3 -9.8 65 36 6   100.74   -7 LegendNANA
07:00 -4.3 -10.0 65 1 6   100.81   -7 LegendNANA
08:00 -4.1 -9.8 64 35 8   100.81   -8 LegendNANA
09:00 -3.4 -9.4 63 2 9   100.90   -7 LegendNANA
10:00 -2.9 -9.1 62 4 13   100.91   -8 LegendNANA
11:00 -1.5 -8.9 57 5 11   100.85   -5 LegendNANA
12:00 -0.2 -10.6 45 6 10   100.77   -4 LegendNANA
13:00 0.9 -11.1 40 3 11   100.66     LegendNANA
14:00 2.2 -10.9 37 2 9   100.57     LegendNANA
15:00 0.4 -7.1 57 9 18   100.54     LegendNANA
16:00 -0.2 -9.0 51 6 17   100.51   -5 LegendNANA
17:00 -1.3 -9.4 54 7 19   100.50   -7 LegendNANA
18:00 -2.8 -8.0 68 7 18   100.44   -8 LegendNANA
19:00 -3.6 -7.5 74 7 19   100.55   -10 LegendNANA
20:00 -4.1 -7.3 78 8 18   100.56   -10 LegendNANA
21:00 -4.2 -7.4 78 4 8   100.56   -8 LegendNANA
22:00 -4.3 -7.9 76 1 4   100.60   -6 LegendNANA
23:00 -4.5 -7.9 77 32 3   100.66   -6 LegendNANA

Notes on Data Quality.

Legend

  • E = Estimated
  • M = Missing
  • NA = Not Available
Date modified: